Location: Oklahoma City
(35.4680°N, 97.5160°W)
Time: 11:44:14
(UTC-05:00)

ISS - Visible Passes

Search period start: 21 May 2018 00:00
Search period end: 31 May 2018 00:00
Orbit: 402 x 407 km, 51.6° (Epoch: 22 May)

Date Brightness Start Highest point End Pass type
(mag) Time Alt. Az. Time Alt. Az. Time Alt. Az.
21 May -2.1 04:45:19 10° NNW 04:48:21 34° NE 04:51:22 10° ESE visible
21 May -3.8 21:22:49 10° SW 21:26:01 56° SE 21:29:13 10° NE visible
21 May -0.7 23:00:35 10° WNW 23:02:44 16° NNW 23:04:53 10° NNE visible
22 May -1.0 03:53:31 10° NNW 03:56:02 20° NNE 03:58:32 10° E visible
22 May -3.4 05:29:33 10° WNW 05:32:36 38° SW 05:35:38 10° SSE visible
22 May -1.5 22:07:32 10° W 22:10:21 26° NW 22:13:11 10° NNE visible
23 May -0.4 03:02:00 10° N 03:03:36 13° NNE 03:05:12 10° NE visible
23 May -4.0 04:37:12 10° NW 04:40:28 86° SW 04:43:44 10° SE visible
23 May -2.7 21:14:52 10° WSW 21:18:03 49° NW 21:21:15 10° NE visible
24 May -0.5 22:00:51 10° WNW 22:02:39 14° NNW 22:04:27 10° N visible
25 May -1.0 21:07:35 10° W 21:10:13 22° NNW 21:12:50 10° NNE visible
30 May -0.4 00:09:30 10° N 00:09:53 11° N 00:09:53 11° N visible
